カタログに戻る

CZ-4B DEB

運用中SSO
NORAD 35573·DEBRIS·🇨🇳 China

打ち上げ Oct 25, 2008 から Taiyuan Satellite Launch Center

Loading…

次のパス (今後24時間)

TLE

最新Source: Space-Track

元期: Sep 14, 2026, 12:59 UTC

1 35573U 08053J   26257.54161279  .00033529  00000-0  11097-2 0  9998
2 35573  97.7930   6.6917 0043938   7.5621 352.6272 15.30305000947461

AllMySatでCZ-4B DEBをリアルタイム追跡

Download on the App Store